Location: Unspecified
(48.5670°N, 0.0000°E)
Time: 16:19:21
(UTC+00:00)

Transit 4A - Pass Details

Date: 03 September 2019
Orbit: 865 x 980 km, 66.8° (Epoch: 21 September)

Event Time Altitude Azimuth Distance (km) Brightness Sun altitude
Rises 01:00:39 0° 320° (NW) 3,623 11.4 -32.1°
Reaches altitude 10° 01:03:23 10° 313° (NW) 2,657 10.5 -32.0°
Enters shadow 01:05:57 23° 298° (WNW) 1,849 9.5 -31.9°
